EW1913 Weather Reports


Display with metric or nautical units.
time (UTC)temp
F
wind
direction
speed
MPH
gust
MPH
rain 1hr
in
rain 24hr
in
rain mn
in
humidity
%
barometer
mb
20200713013851 73 270 1.0 4.0 0.00 0.00 0.00 72 1008.0
20200713013359 73 212 0.0 5.0 0.00 0.00 0.00 72 1008.0
20200713013028 73 229 1.0 5.0 0.00 0.00 0.00 73 1007.0
20200713012849 73 287 2.0 5.0 0.00 0.00 0.00 73 1007.9
20200713012352 74 314 1.0 4.0 0.00 0.00 0.00 76 1007.9
20200713011838 74 250 1.0 3.0 0.00 0.00 0.00 76 1007.9
20200713011550 73 236 0.0 3.0 0.00 0.00 0.00 76 1006.9
20200713011341 74 186 0.0 3.0 0.00 0.00 0.00 76 1007.9
20200713010844 74 229 1.0 3.0 0.00 0.00 0.00 76 1007.8
20200713010348 74 245 0.0 2.0 0.00 0.00 0.00 76 1007.8
20200713010018 73 94 0.0 2.0 0.00 0.00 0.00 76 1006.9
20200713005844 74 295 0.0 2.0 0.00 0.00 0.00 76 1007.8
20200713005349 74 191 0.0 2.0 0.00 0.00 0.00 75 1007.8
20200713004847 74 212 0.0 4.0 0.00 0.00 0.00 75 1007.8
20200713004356 74 201 1.0 5.0 0.00 0.00 0.00 75 1007.8
20200713003847 74 181 0.0 5.0 0.00 0.00 0.00 75 1007.8
20200713003356 75 188 1.0 3.0 0.00 0.00 0.00 75 1007.8
20200713003052 74 222 0.0 3.0 0.00 0.00 0.00 75 1006.9
20200713002853 75 202 0.0 3.0 0.00 0.00 0.00 75 1007.7
20200713002358 75 177 1.0 3.0 0.00 0.00 0.00 75 1007.7
20200713001855 75 238 1.0 5.0 0.00 0.00 0.00 74 1007.7
20200713001553 75 201 0.0 5.0 0.00 0.00 0.00 74 1006.7
20200713001340 75 226 0.0 5.0 0.00 0.00 0.00 74 1007.7
20200713000837 75 198 1.0 5.0 0.00 0.00 0.00 75 1007.6
20200713000342 75 143 2.0 5.0 0.00 0.00 0.00 75 1007.7
20200712235848 75 250 1.0 6.0 0.00 0.04 0.00 75 1007.7
20200712235354 76 262 1.0 6.0 0.00 0.04 0.00 74 1007.7
20200712234849 76 141 2.0 6.0 0.00 0.04 0.00 74 1007.6
20200712234358 76 160 1.0 7.0 0.00 0.04 0.00 74 1007.5
20200712233853 76 207 3.0 7.0 0.00 0.04 0.00 73 1007.5
20200712233403 76 273 2.0 7.0 0.00 0.04 0.00 73 1007.4
20200712233050 76 128 2.0 7.0 0.00 0.04 0.00 73 1006.4
20200712232846 76 266 2.0 5.0 0.00 0.04 0.00 72 1007.3
20200712232351 76 195 1.0 6.0 0.00 0.04 0.00 73 1007.2
20200712231843 76 207 2.0 7.0 0.00 0.04 0.00 73 1007.1
20200712231705 76 162 0.0 7.0 0.00 0.04 0.00 73 1006.2
20200712231346 76 200 2.0 7.0 0.00 0.04 0.00 73 1007.0
20200712230846 76 156 1.0 5.0 0.00 0.04 0.00 74 1007.0
20200712230355 76 130 2.0 7.0 0.00 0.04 0.00 74 1007.0
20200712230020 75 148 1.0 7.0 0.00 0.04 0.00 74 1006.1
20200712225851 76 134 2.0 7.0 0.00 0.04 0.00 74 1007.1
20200712225355 75 172 3.0 7.0 0.00 0.04 0.00 74 1007.1
20200712224848 75 210 3.0 7.0 0.00 0.04 0.00 73 1007.0
20200712224354 75 222 2.0 7.0 0.00 0.04 0.00 73 1007.0
20200712223847 76 204 2.0 7.0 0.00 0.04 0.00 72 1006.9
20200712223356 76 120 1.0 8.0 0.00 0.04 0.00 72 1007.0
20200712223017 75 316 2.0 8.0 0.00 0.04 0.00 72 1006.1
20200712222841 76 228 2.0 9.0 0.00 0.04 0.00 72 1006.9
20200712222352 76 201 2.0 8.0 0.00 0.04 0.00 72 1006.9
20200712221849 76 191 3.0 10.0 0.00 0.04 0.00 72 1007.0
20200712221355 76 212 2.0 10.0 0.00 0.04 0.00 71 1006.9
20200712220852 77 249 3.0 9.0 0.00 0.04 0.00 71 1006.9
20200712220400 77 181 2.0 8.0 0.00 0.04 0.00 70 1006.9
20200712220103 77 290 2.0 9.0 0.00 0.04 0.00 69 1006.0
20200712215349 77 204 3.0 8.0 0.00 0.05 0.00 69 1006.8
20200712214850 78 253 3.0 8.0 0.00 0.05 0.00 68 1006.8
20200712214356 78 131 2.0 7.0 0.00 0.05 0.00 66 1006.8
20200712213856 78 219 2.0 7.0 0.00 0.05 0.00 66 1006.9
20200712213402 78 210 2.0 9.0 0.00 0.05 0.00 66 1006.8
20200712213028 78 160 3.0 9.0 0.00 0.05 0.00 66 1006.0
20200712212839 78 342 3.0 8.0 0.00 0.05 0.00 66 1006.9
20200712212348 79 212 3.0 7.0 0.00 0.05 0.00 65 1006.9
20200712211851 79 290 2.0 8.0 0.00 0.05 0.00 65 1006.8
20200712211628 78 188 2.0 10.0 0.00 0.05 0.00 65 1006.0
20200712211358 79 238 3.0 10.0 0.00 0.05 0.00 64 1006.8
20200712210858 79 214 2.0 11.0 0.00 0.05 0.00 65 1006.9
20200712210344 80 219 4.0 10.0 0.00 0.05 0.00 64 1006.8
20200712210124 80 227 3.0 9.0 0.00 0.05 0.00 63 1005.9
20200712205857 80 200 2.0 6.0 0.00 0.11 0.00 62 1006.8
20200712205342 80 212 3.0 7.0 0.00 0.11 0.00 61 1006.7
20200712204841 80 176 2.0 7.0 0.00 0.11 0.00 61 1006.7
20200712204351 80 200 3.0 9.0 0.00 0.11 0.00 62 1006.7
20200712203852 80 236 3.0 9.0 0.00 0.11 0.00 63 1006.7
20200712203402 81 280 3.0 9.0 0.00 0.11 0.00 61 1006.7
20200712202854 81 269 4.0 8.0 0.00 0.11 0.00 61 1006.8
20200712202339 81 219 3.0 10.0 0.00 0.11 0.00 61 1006.7
20200712201843 81 177 3.0 11.0 0.00 0.11 0.00 61 1006.5
20200712201353 81 267 5.0 10.0 0.00 0.11 0.00 60 1006.5
20200712200854 82 264 3.0 8.0 0.00 0.11 0.00 59 1006.6
20200712200359 82 215 2.0 8.0 0.00 0.11 0.00 59 1006.5
20200712200031 81 203 2.0 10.0 0.00 0.11 0.00 59 1005.8
20200712195852 81 207 2.0 10.0 0.00 0.22 0.00 59 1006.6
20200712195357 81 188 3.0 12.0 0.00 0.22 0.00 59 1006.6
20200712194838 81 208 4.0 12.0 0.00 0.22 0.00 59 1006.7
20200712194516 81 213 3.0 10.0 0.00 0.22 0.00 60 1005.9
20200712194344 81 243 2.0 10.0 0.00 0.22 0.00 60 1006.7
20200712193847 81 162 4.0 10.0 0.00 0.22 0.00 59 1006.9
20200712193354 81 271 4.0 9.0 0.00 0.22 0.00 59 1006.9
20200712193109 80 290 2.0 9.0 0.00 0.22 0.00 62 1006.0
20200712192849 80 292 2.0 9.0 0.00 0.22 0.00 61 1006.9
20200712192340 80 156 3.0 9.0 0.00 0.22 0.00 62 1006.9
20200712191838 79 165 3.0 10.0 0.00 0.22 0.00 63 1006.9
20200712191534 78 150 3.0 10.0 0.00 0.22 0.00 64 1006.1
20200712191340 79 221 3.0 10.0 0.00 0.22 0.00 64 1007.0
20200712190838 78 156 4.0 8.0 0.00 0.22 0.00 65 1007.0
20200712190348 79 187 4.0 9.0 0.00 0.22 0.00 64 1007.1
20200712190021 78 173 1.0 9.0 0.00 0.22 0.00 65 1006.1
20200712185843 79 237 3.0 12.0 0.00 0.30 0.00 65 1007.0
20200712185349 79 108 2.0 12.0 0.00 0.30 0.00 64 1007.0
20200712184850 79 128 2.0 8.0 0.00 0.30 0.00 65 1007.0
20200712184510 79 138 3.0 8.0 0.00 0.30 0.00 63 1006.2
20200712184341 79 287 4.0 9.0 0.00 0.30 0.00 63 1007.0
20200712183846 80 134 3.0 10.0 0.00 0.30 0.00 62 1007.1
20200712183357 80 207 3.0 11.0 0.00 0.30 0.00 62 1007.0
20200712182855 80 156 4.0 11.0 0.00 0.30 0.00 62 1007.1
20200712182338 81 160 4.0 9.0 0.00 0.30 0.00 60 1007.3
20200712181838 81 89 3.0 9.0 0.00 0.30 0.00 61 1007.2
20200712181547 80 227 3.0 9.0 0.00 0.30 0.00 61 1006.2
20200712181359 81 321 2.0 8.0 0.00 0.30 0.00 60 1007.2
20200712180859 81 219 3.0 8.0 0.00 0.30 0.00 60 1007.1
20200712180343 81 162 3.0 10.0 0.00 0.30 0.00 62 1007.0
20200712180051 80 213 3.0 11.0 0.00 0.30 0.00 61 1006.2
20200712175846 80 200 4.0 11.0 0.00 0.44 0.00 62 1007.0
20200712175354 80 131 4.0 11.0 0.00 0.44 0.00 62 1006.9
20200712174853 80 221 3.0 11.0 0.00 0.44 0.00 63 1007.0
20200712174715 79 115 2.0 11.0 0.00 0.44 0.00 64 1006.1
20200712174358 79 207 3.0 11.0 0.00 0.44 0.00 64 1007.0
20200712173855 79 158 4.0 9.0 0.00 0.44 0.00 63 1007.0
20200712173401 79 124 4.0 9.0 0.00 0.44 0.00 63 1007.0
20200712173027 79 129 5.0 10.0 0.00 0.44 0.00 63 1006.1
20200712172855 80 124 4.0 10.0 0.00 0.44 0.00 63 1006.9
20200712172342 80 191 4.0 10.0 0.00 0.44 0.00 62 1006.9
20200712171843 80 131 3.0 10.0 0.00 0.44 0.00 63 1006.9
20200712171353 80 145 3.0 10.0 0.00 0.44 0.00 62 1006.9
20200712170853 80 194 2.0 11.0 0.00 0.44 0.00 62 1006.9
20200712170404 80 240 3.0 11.0 0.00 0.44 0.00 63 1007.0
20200712165900 80 145 3.0 11.0 0.00 0.72 0.00 62 1006.9
20200712165344 80 200 3.0 11.0 0.00 0.72 0.00 62 1006.9
20200712164842 80 207 2.0 8.0 0.00 0.72 0.00 64 1007.0
20200712164346 79 153 4.0 10.0 0.00 0.72 0.00 63 1007.1
20200712163846 79 132 3.0 10.0 0.00 0.72 0.00 63 1007.0
20200712163355 79 136 5.0 10.0 0.00 0.72 0.00 62 1007.0
20200712163122 78 138 2.0 12.0 0.00 0.72 0.00 64 1006.2
20200712162846 79 200 3.0 12.0 0.00 0.72 0.00 64 1007.1
20200712162355 79 180 4.0 15.0 0.00 0.72 0.00 62 1007.1
20200712161850 79 148 3.0 15.0 0.00 0.72 0.00 63 1007.0
20200712161359 79 94 4.0 10.0 0.00 0.72 0.00 62 1007.1
20200712160856 79 138 4.0 10.0 0.00 0.72 0.00 63 1007.1
20200712160405 79 188 4.0 11.0 0.00 0.72 0.00 63 1007.1
20200712155838 79 133 3.0 12.0 0.00 0.72 0.00 64 1007.0
20200712155338 79 110 5.0 12.0 0.00 0.72 0.00 63 1007.0
20200712154838 80 150 3.0 9.0 0.00 0.72 0.00 60 1007.0
20200712154607 79 222 1.0 9.0 0.00 0.72 0.00 62 1006.1
20200712154340 80 224 3.0 9.0 0.00 0.72 0.00 61 1007.1
20200712153844 80 153 3.0 7.0 0.00 0.72 0.00 59 1007.1
20200712153349 80 138 2.0 6.0 0.00 0.72 0.00 59 1007.1
20200712153026 79 183 3.0 6.0 0.00 0.72 0.00 58 1006.2
20200712152845 80 158 3.0 6.0 0.00 0.72 0.00 57 1007.1
20200712152349 80 253 0.0 7.0 0.00 0.72 0.00 58 1007.1
20200712151901 80 52 2.0 7.0 0.00 0.72 0.00 59 1007.1
20200712151514 79 139 2.0 7.0 0.00 0.72 0.00 59 1006.2
20200712151342 80 120 2.0 7.0 0.00 0.72 0.00 58 1007.0
20200712150845 80 231 2.0 7.0 0.00 0.72 0.00 58 1007.1
20200712150354 80 257 1.0 6.0 0.00 0.72 0.00 58 1007.1
20200712150045 79 248 0.0 6.0 0.00 0.72 0.00 59 1006.3
20200712145856 79 356 0.0 6.0 0.00 0.72 0.00 59 1007.1
20200712145343 79 135 2.0 6.0 0.00 0.72 0.00 61 1007.1
20200712144839 79 142 1.0 4.0 0.00 0.72 0.00 63 1007.2
20200712144551 78 225 0.0 8.0 0.00 0.72 0.00 63 1006.3
20200712144401 78 276 1.0 8.0 0.00 0.72 0.00 64 1007.2
20200712143858 78 228 4.0 8.0 0.00 0.72 0.00 64 1007.2
20200712143344 78 173 1.0 8.0 0.00 0.72 0.00 65 1007.2
20200712143032 77 195 1.0 8.0 0.00 0.72 0.00 67 1006.3
20200712142850 77 107 0.0 8.0 0.00 0.72 0.00 68 1007.1
20200712142358 77 134 2.0 5.0 0.00 0.72 0.00 68 1007.2
20200712141838 77 120 1.0 6.0 0.00 0.72 0.00 69 1007.1
20200712141520 76 132 2.0 6.0 0.00 0.72 0.00 69 1006.4
20200712141342 77 200 2.0 6.0 0.00 0.72 0.00 69 1007.3
20200712140842 77 131 2.0 5.0 0.00 0.72 0.00 69 1007.4
20200712140348 77 195 1.0 4.0 0.00 0.72 0.00 70 1007.4
20200712140221 76 179 1.0 6.0 0.00 0.72 0.00 70 1006.4
20200712135857 76 113 1.0 6.0 0.00 0.72 0.00 70 1007.3
20200712135338 76 122 2.0 6.0 0.00 0.72 0.00 70 1007.4
20200712134839 75 213 2.0 7.0 0.00 0.72 0.00 71 1007.4
20200712134528 75 127 1.0 7.0 0.00 0.72 0.00 70 1006.5
20200712134358 76 200 1.0 7.0 0.00 0.72 0.00 71 1007.4
20200712133857 75 85 0.0 6.0 0.00 0.72 0.00 71 1007.4
20200712133345 75 141 3.0 6.0 0.00 0.72 0.00 70 1007.4
20200712133034 75 223 0.0 3.0 0.00 0.72 0.00 71 1006.6
20200712132843 75 110 1.0 3.0 0.00 0.72 0.00 70 1007.5
20200712132346 75 224 1.0 5.0 0.00 0.72 0.00 71 1007.5
20200712131838 74 219 0.0 5.0 0.00 0.72 0.00 71 1007.6
20200712131344 74 160 1.0 3.0 0.00 0.72 0.00 71 1007.5
20200712130847 74 188 1.0 5.0 0.00 0.72 0.00 72 1007.5
20200712130343 74 134 2.0 5.0 0.00 0.72 0.00 72 1007.4
20200712130032 73 210 0.0 5.0 0.00 0.72 0.00 72 1006.5
20200712125854 73 110 1.0 5.0 0.00 0.72 0.00 72 1007.3
20200712125342 73 153 1.0 5.0 0.00 0.72 0.00 72 1007.3
20200712124844 73 165 1.0 3.0 0.00 0.72 0.00 72 1007.3
20200712124603 73 194 1.0 3.0 0.00 0.72 0.00 72 1006.4
20200712124346 73 238 1.0 5.0 0.00 0.72 0.00 72 1007.3
20200712123845 73 134 0.0 5.0 0.00 0.72 0.00 73 1007.3
20200712123354 73 228 0.0 3.0 0.00 0.72 0.00 73 1007.3
20200712123038 72 113 0.0 3.0 0.00 0.72 0.00 73 1006.4
20200712122847 72 201 0.0 3.0 0.00 0.72 0.00 73 1007.3
20200712122354 72 208 0.0 3.0 0.00 0.72 0.00 73 1007.1
20200712121850 72 203 0.0 2.0 0.00 0.72 0.00 73 1007.1
20200712121513 71 207 0.0 2.0 0.00 0.72 0.00 75 1006.3
20200712121339 72 212 0.0 2.0 0.00 0.72 0.00 74 1007.1
20200712120838 71 204 0.0 2.0 0.00 0.72 0.00 75 1007.1
20200712120348 71 225 0.0 2.0 0.00 0.72 0.00 76 1007.1
20200712120118 70 127 0.0 2.0 0.00 0.72 0.00 76 1006.4
20200712115859 70 206 0.0 2.0 0.00 0.72 0.00 76 1007.2
20200712115339 70 254 0.0 3.0 0.00 0.72 0.00 77 1007.2
20200712114859 69 151 1.0 3.0 0.00 0.72 0.00 77 1007.1
20200712114538 69 205 0.0 3.0 0.00 0.72 0.00 78 1006.3
20200712114339 69 158 1.0 4.0 0.00 0.72 0.00 78 1007.3
20200712113837 69 247 0.0 4.0 0.00 0.72 0.00 78 1007.3
20200712113345 69 203 0.0 2.0 0.00 0.72 0.00 79 1007.3
20200712113034 68 136 0.0 4.0 0.00 0.72 0.00 79 1006.3
20200712112839 69 187 0.0 4.0 0.00 0.72 0.00 80 1007.1
20200712112340 68 151 1.0 4.0 0.00 0.72 0.00 80 1007.1
20200712111842 68 195 0.0 2.0 0.00 0.72 0.00 81 1007.0
20200712111350 67 155 0.0 2.0 0.00 0.72 0.00 83 1007.1
20200712110840 67 197 0.0 1.0 0.00 0.72 0.00 85 1006.9
20200712110349 66 194 0.0 1.0 0.00 0.72 0.00 86 1006.9
20200712110021 65 188 0.0 1.0 0.00 0.72 0.00 86 1005.9
20200712105842 66 169 0.0 1.0 0.00 0.72 0.00 87 1006.8
20200712105351 65 223 0.0 2.0 0.00 0.72 0.00 87 1006.8
20200712104850 65 156 0.0 2.0 0.00 0.72 0.00 87 1006.8
20200712104359 65 153 0.0 2.0 0.00 0.72 0.00 88 1006.8
20200712103857 65 153 0.0 1.0 0.00 0.72 0.00 88 1006.8
20200712103404 65 170 0.0 2.0 0.00 0.72 0.00 88 1006.7
20200712103012 65 170 0.0 2.0 0.00 0.72 0.00 88 1005.8
20200712102838 65 170 0.0 2.0 0.00 0.72 0.00 88 1006.6
20200712102344 65 181 1.0 2.0 0.00 0.72 0.00 88 1006.5
20200712101841 65 195 0.0 2.0 0.00 0.72 0.00 88 1006.5
20200712101530 65 191 0.0 2.0 0.00 0.72 0.00 88 1005.6
20200712101339 65 145 1.0 3.0 0.00 0.72 0.00 88 1006.4
20200712100841 65 211 0.0 3.0 0.00 0.72 0.00 88 1006.4
20200712100342 65 235 0.0 2.0 0.00 0.72 0.00 88 1006.4
20200712100055 65 226 0.0 2.0 0.00 0.72 0.00 88 1005.3
20200712095853 65 226 0.0 2.0 0.00 0.72 0.00 88 1006.2
20200712095358 65 208 0.0 2.0 0.00 0.72 0.00 88 1006.2
20200712094851 65 236 0.0 3.0 0.00 0.72 0.00 88 1006.1
20200712094601 65 221 0.0 3.0 0.00 0.72 0.00 87 1005.1
20200712094339 65 221 0.0 3.0 0.00 0.72 0.00 87 1006.0
20200712093900 66 226 0.0 3.0 0.00 0.72 0.00 87 1006.0
20200712093402 66 193 0.0 3.0 0.00 0.72 0.00 87 1005.8
20200712092858 66 273 1.0 3.0 0.00 0.72 0.00 86 1005.8
20200712092343 66 181 0.0 2.0 0.00 0.72 0.00 86 1005.7
20200712091342 66 198 0.0 3.0 0.00 0.72 0.00 85 1005.7
20200712090840 66 169 1.0 4.0 0.00 0.72 0.00 85 1005.7
20200712090402 67 188 0.0 6.0 0.00 0.72 0.00 85 1005.7
20200712090046 66 203 1.0 6.0 0.00 0.72 0.00 85 1004.8
20200712085849 67 188 1.0 6.0 0.00 0.72 0.00 85 1005.7
20200712085355 67 191 1.0 4.0 0.00 0.72 0.00 85 1005.6
20200712084542 66 195 0.0 3.0 0.00 0.72 0.00 85 1004.6
20200712084341 67 122 1.0 4.0 0.00 0.72 0.00 85 1005.5
20200712083842 67 224 0.0 4.0 0.00 0.72 0.00 85 1005.6
20200712083351 67 163 0.0 3.0 0.00 0.72 0.00 85 1005.6
20200712083041 66 177 0.0 3.0 0.00 0.72 0.00 85 1004.5
20200712082844 67 151 0.0 3.0 0.00 0.72 0.00 85 1005.4
20200712082351 67 163 0.0 2.0 0.00 0.72 0.00 85 1005.4
20200712081850 67 122 0.0 2.0 0.00 0.72 0.00 85 1005.3
20200712081357 67 176 0.0 2.0 0.00 0.72 0.00 84 1005.3
20200712080838 67 174 0.0 2.0 0.00 0.72 0.00 84 1005.2
20200712080403 67 218 0.0 2.0 0.00 0.72 0.00 85 1005.1
20200712075858 67 190 0.0 2.0 0.00 0.72 0.00 84 1005.1
20200712075343 67 231 0.0 4.0 0.00 0.72 0.00 84 1005.2
20200712074854 67 179 0.0 4.0 0.00 0.72 0.00 84 1005.2
20200712074514 67 150 0.0 1.0 0.00 0.72 0.00 84 1004.3
20200712074359 68 203 0.0 1.0 0.00 0.72 0.00 84 1005.2
20200712073855 68 181 0.0 1.0 0.00 0.72 0.00 84 1005.3
20200712073400 68 181 0.0 2.0 0.00 0.72 0.00 83 1005.2
20200712072854 68 228 0.0 2.0 0.00 0.72 0.00 83 1005.3
20200712072340 69 186 0.0 2.0 0.00 0.72 0.00 83 1005.3
20200712071842 69 235 0.0 3.0 0.00 0.72 0.00 83 1005.3
20200712071549 68 159 0.0 3.0 0.00 0.72 0.00 83 1004.4
20200712071343 69 139 0.0 3.0 0.00 0.72 0.00 83 1005.3
20200712070846 69 163 0.0 1.0 0.00 0.72 0.00 83 1005.4
20200712070352 69 191 0.0 2.0 0.00 0.72 0.00 83 1005.4
20200712070050 68 215 0.0 2.0 0.00 0.72 0.00 83 1004.6
20200712065839 69 222 0.0 2.0 0.00 0.72 0.00 83 1005.5
20200712065343 69 207 0.0 1.0 0.00 0.72 0.00 83 1005.5
20200712064843 69 325 0.0 1.0 0.00 0.72 0.00 83 1005.5
20200712064348 69 316 0.0 2.0 0.00 0.72 0.00 82 1005.5
20200712063845 69 224 0.0 2.0 0.00 0.72 0.00 82 1005.4
20200712063351 69 162 0.0 4.0 0.00 0.72 0.00 82 1005.5
20200712062840 69 231 1.0 3.0 0.00 0.72 0.00 82 1005.6
20200712062342 69 131 0.0 3.0 0.00 0.72 0.00 81 1005.6
20200712061842 70 256 0.0 3.0 0.00 0.72 0.00 81 1005.6
20200712061524 69 201 0.0 2.0 0.00 0.72 0.00 81 1004.6
20200712061341 70 207 0.0 2.0 0.00 0.72 0.00 81 1005.5
20200712060842 70 224 0.0 3.0 0.00 0.72 0.00 81 1005.5
20200712060348 70 116 0.0 4.0 0.00 0.72 0.00 80 1005.5
20200712060225 70 269 0.0 4.0 0.00 0.72 0.00 80 1004.6
20200712055859 70 273 1.0 4.0 0.00 0.72 0.00 80 1005.6
20200712055342 70 12 0.0 4.0 0.00 0.72 0.00 80 1005.6
20200712054839 70 348 0.0 3.0 0.00 0.72 0.00 80 1005.5
20200712054522 70 131 0.0 3.0 0.00 0.72 0.00 81 1004.6
20200712054338 70 212 0.0 4.0 0.00 0.72 0.00 80 1005.6
20200712053838 70 245 0.0 5.0 0.00 0.72 0.00 81 1005.6
20200712053345 71 131 0.0 6.0 0.00 0.72 0.00 81 1005.6
20200712052858 71 240 2.0 6.0 0.00 0.72 0.00 81 1005.7
20200712052342 71 290 1.0 4.0 0.00 0.72 0.00 81 1005.6
20200712051858 71 114 0.0 4.0 0.00 0.72 0.00 81 1005.6
20200712051527 70 288 0.0 5.0 0.00 0.72 0.00 81 1004.6
20200712051400 71 41 0.0 5.0 0.00 0.72 0.00 81 1005.6
20200712050857 71 222 1.0 5.0 0.00 0.72 0.00 81 1005.6
20200712050342 71 210 0.0 3.0 0.00 0.72 0.00 81 1005.5
20200712050112 70 235 0.0 5.0 0.00 0.72 0.00 81 1004.5
20200712045852 71 316 1.0 5.0 0.00 0.72 0.00 81 1005.5
20200712045356 71 197 1.0 5.0 0.00 0.72 0.00 81 1005.5
20200712044852 71 164 1.0 5.0 0.00 0.72 0.00 81 1005.4
20200712044358 71 325 0.0 4.0 0.00 0.72 0.00 81 1005.4
20200712043857 71 289 1.0 6.0 0.00 0.72 0.00 81 1005.5
20200712043359 71 78 2.0 6.0 0.00 0.72 0.00 81 1005.4
20200712042856 71 228 0.0 4.0 0.00 0.72 0.00 81 1005.4
20200712042338 71 283 1.0 3.0 0.00 0.72 0.00 81 1005.4
20200712041859 71 219 1.0 4.0 0.00 0.72 0.00 81 1005.3
20200712041518 71 203 1.0 4.0 0.00 0.72 0.00 81 1004.4
20200712041341 71 315 1.0 4.0 0.00 0.72 0.00 81 1005.4
20200712040842 71 260 1.0 5.0 0.00 0.72 0.00 81 1005.4
20200712040348 71 212 1.0 6.0 0.00 0.72 0.00 82 1005.5
20200712040053 71 124 1.0 6.0 0.00 0.72 0.00 82 1004.4
20200712035839 71 246 1.0 9.0 0.00 0.72 0.72 82 1005.3
20200712035342 71 299 1.0 9.0 0.00 0.72 0.72 82 1005.4
20200712034840 71 299 1.0 5.0 0.00 0.72 0.72 82 1005.3
20200712034515 71 183 1.0 5.0 0.00 0.72 0.72 82 1004.3
20200712034346 71 238 1.0 5.0 0.00 0.72 0.72 82 1005.3
20200712033846 71 183 1.0 7.0 0.00 0.72 0.72 82 1005.3
20200712033353 71 304 1.0 7.0 0.00 0.72 0.72 83 1005.3
20200712033026 71 197 0.0 7.0 0.00 0.72 0.72 83 1004.3
20200712032846 71 41 1.0 7.0 0.00 0.72 0.72 83 1005.2
20200712032346 71 254 2.0 6.0 0.00 0.72 0.72 83 1005.2
20200712031845 71 215 1.0 5.0 0.00 0.72 0.72 83 1005.2
20200712031352 71 240 2.0 5.0 0.00 0.72 0.72 83 1005.2
20200712030844 71 247 1.0 4.0 0.00 0.72 0.72 84 1005.2
20200712030344 71 142 1.0 4.0 0.00 0.72 0.72 84 1005.2
20200712030112 71 121 0.0 3.0 0.00 0.72 0.72 85 1004.2
20200712025857 71 195 0.0 3.0 0.00 0.72 0.72 85 1005.1
20200712025400 71 219 0.0 4.0 0.00 0.72 0.72 86 1005.1
20200712024859 71 181 1.0 6.0 0.00 0.72 0.72 86 1005.1
20200712024557 71 221 1.0 6.0 0.00 0.72 0.72 86 1004.1
20200712024342 71 243 2.0 6.0 0.00 0.72 0.72 86 1005.1
20200712023838 71 228 1.0 5.0 0.00 0.72 0.72 87 1005.1
20200712023346 71 187 0.0 5.0 0.00 0.72 0.72 88 1005.1
20200712023033 70 205 1.0 5.0 0.00 0.72 0.72 88 1004.0
20200712022840 71 137 0.0 4.0 0.00 0.72 0.72 88 1005.0
20200712022344 71 233 0.0 5.0 0.00 0.72 0.72 89 1005.0
20200712021839 71 308 1.0 5.0 0.00 0.72 0.72 90 1005.0
20200712021537 70 210 1.0 5.0 0.00 0.72 0.72 90 1004.0
20200712021344 71 153 1.0 5.0 0.00 0.72 0.72 91 1005.1
20200712020841 71 87 1.0 4.0 0.00 0.72 0.72 91 1005.1
20200712020348 71 197 1.0 5.0 0.00 0.72 0.72 91 1005.1
20200712020020 70 300 0.0 5.0 0.00 0.72 0.72 92 1004.1
20200712015839 71 183 1.0 5.0 0.00 0.72 0.72 92 1005.2
20200712015340 70 231 1.0 5.0 0.00 0.72 0.72 92 1005.1
20200712014838 70 219 0.0 3.0 0.00 0.72 0.72 92 1005.1
20200712014515 70 207 0.0 3.0 0.00 0.72 0.72 92 1004.1
20200712014345 70 207 0.0 5.0 0.00 0.72 0.72 92 1005.1